Weather History for Cross City, FL

Change the Weather History Date:

Friday, April 19, 2013

  Actual Average Record
Temperature  
Mean Temperature 74 °F 67 °F  
Max Temperature 85 °F 81 °F 89 °F (2011)
Min Temperature 63 °F 54 °F 32 °F (2001)
Degree Days  
Heating Degree Days 0 1  
Month to date heating degree days 11 40  
Since 1 July heating degree days 1104 1295  
Cooling Degree Days 9 4  
Month to date cooling degree days 114 58  
Year to date cooling degree days 232 132  
Growing Degree Days 25 (Base 50)    
Moisture  
Dew Point 69 °F    
Average Humidity 79    
Maximum Humidity 93    
Minimum Humidity 65    
Precipitation  
Precipitation 0.11 in 0.08 in 0.56 in (1998)
Month to date precipitation 1.60 2.28  
Year to date precipitation 6.32 13.80  
Sea Level Pressure  
Sea Level Pressure 29.96 in    
Wind  
Wind Speed 11 mph (SSW)    
Max Wind Speed 26 mph    
Max Gust Speed 35 mph    
T = Trace of Precipitation, MM = Missing Value Source: NWS Daily Summary

Daily Weather History Graph

Daily Weather History Graph

Search for Another Location

Airport:

Trip Planner

Search our weather history database for the weather conditions in past years. The results will help you decide how hot, cold, wet, or windy it might be!

Date:

Astronomy

Apr. 19, 2013 Rise Set
Actual Time 7:01 AM EDT 8:01 PM EDT
Civil Twilight 6:36 AM EDT 8:26 PM EDT
Nautical Twilight 6:07 AM EDT 8:55 PM EDT
Astronomical Twilight 5:37 AM EDT 9:25 PM EDT
Moon 2:12 PM EDT (4/19) 2:48 AM EDT (4/19)
Length of Visible Light 13h 49m
Length of Day
13h 00m
First Quarter, 61% of the Moon is Illuminated
Apr 19
First Quarter
Apr 25
Full
May 2
Last Quarter
May 9
New
May 18
First Quarter

Hourly Weather History & Observations

Time (EDT) Temp. Heat Index Dew Point Humidity Pressure Visibility Wind Dir Wind Speed Gust Speed Precip Events Conditions
12:53 AM 70.0 °F - 64.9 °F 84% 30.00 in - Calm Calm - N/A   Unknown
1:53 AM 68.0 °F - 64.0 °F 87% 29.98 in - Calm Calm - N/A   Unknown
2:53 AM 66.9 °F - 64.0 °F 90% 29.95 in - Calm Calm - N/A   Unknown
3:53 AM 68.0 °F - 64.0 °F 87% 29.94 in - Calm Calm - N/A   Unknown
4:53 AM 71.1 °F - 66.0 °F 84% 29.95 in - SSE 5.8 mph - N/A   Unknown
5:53 AM 70.0 °F - 66.0 °F 87% 29.96 in - SSE 5.8 mph - N/A   Unknown
6:53 AM 70.0 °F - 66.9 °F 90% 29.97 in - SSE 4.6 mph - N/A   Unknown
7:53 AM 72.0 °F - 68.0 °F 87% 29.98 in - Variable 4.6 mph - N/A   Unknown
8:53 AM 75.9 °F - 70.0 °F 82% 29.98 in - SSE 11.5 mph 16.1 mph N/A   Unknown
9:53 AM 80.1 °F 83.6 °F 71.1 °F 74% 29.98 in - South 16.1 mph 21.9 mph N/A   Unknown
10:53 AM 82.9 °F 87.0 °F 70.0 °F 65% 30.00 in - South 19.6 mph 25.3 mph N/A   Unknown
11:53 AM 82.9 °F 87.5 °F 71.1 °F 67% 30.00 in - South 23.0 mph 33.4 mph N/A   Unknown
12:53 PM 84.0 °F 89.0 °F 71.1 °F 65% 29.97 in - SSW 17.3 mph 31.1 mph N/A   Unknown
1:53 PM 84.0 °F 89.0 °F 71.1 °F 65% 29.96 in - South 20.7 mph 27.6 mph N/A   Unknown
2:53 PM 82.9 °F 88.0 °F 72.0 °F 69% 29.94 in - SSW 20.7 mph 29.9 mph N/A   Unknown
3:53 PM 81.0 °F 84.9 °F 71.1 °F 72% 29.92 in - SW 19.6 mph 29.9 mph N/A   Unknown
4:53 PM 82.9 °F 88.0 °F 72.0 °F 69% 29.92 in - SSW 19.6 mph 28.8 mph N/A   Unknown
5:53 PM 81.0 °F 85.2 °F 72.0 °F 74% 29.92 in - SW 12.7 mph 20.7 mph N/A   Unknown
6:53 PM 79.0 °F - 72.0 °F 79% 29.92 in - SSW 12.7 mph 20.7 mph N/A   Unknown
7:53 PM 78.1 °F - 72.0 °F 81% 29.93 in - SW 8.1 mph - N/A   Unknown
8:53 PM 77.0 °F - 72.0 °F 84% 29.94 in - WSW 13.8 mph - N/A   Unknown
9:53 PM 71.1 °F - 68.0 °F 90% 29.99 in - North 11.5 mph 17.3 mph 0.10 in   Unknown
10:53 PM 66.0 °F - 64.0 °F 93% 30.01 in - NNW 4.6 mph - N/A   Unknown
11:53 PM 66.0 °F - 63.0 °F 90% 30.04 in - North 6.9 mph - N/A   Unknown